Station Historical Data
Daily Summary for February 12, 2017 Units:  Metric    English   Both
« Previous Day
Next Day »
Daily Weekly Monthly Yearly Custom
  High: Low: Average:
Temperature: 1.5 °C -1.1 °C 0.4 °C
Dew Point: 0.6 °C -5 °C -1.1 °C
Humidity: 94% 74% 90%
Wind Speed: 29km/h 0km/h 7.9km/h
Wind Gust: 46.7km/h - -
Wind- - South
Pressure: 1017.2 hPa 1005.6 hPa -
Precipitation: 0 mm    
Historical Graphs
 
 
Tabular Data for February 12, 2017
Time Temperature Dew Point Pressure Wind Wind Speed Wind Gust Humidity Rainfall Rate (Hourly)
00:04 1.5 °C -1.6 °C 1017.2 hPa ENE 3.2 km/h 12.9 km/h 80% 0 mm
00:09 1.5 °C -1.6 °C 1017.2 hPa NE 6.4 km/h 12.9 km/h 80% 0 mm
00:14 1.4 °C -1.6 °C 1017.2 hPa East 8 km/h 14.5 km/h 80% 0 mm
00:19 1.4 °C -1.6 °C 1017.2 hPa ENE 4.8 km/h 12.9 km/h 80% 0 mm
00:24 1.5 °C -1.6 °C 1017.2 hPa ENE 1.6 km/h 9.7 km/h 80% 0 mm
00:29 1.4 °C -1.6 °C 1017.2 hPa NE 8 km/h 12.9 km/h 80% 0 mm
00:34 1.5 °C -1.6 °C 1016.8 hPa NNE 4.8 km/h 12.9 km/h 80% 0 mm
00:39 1.4 °C -1.6 °C 1016.8 hPa ENE 8 km/h 16.1 km/h 80% 0 mm
00:44 1.4 °C -1.6 °C 1016.8 hPa ENE 8 km/h 16.1 km/h 80% 0 mm
00:49 1.4 °C -1.4 °C 1016.8 hPa ENE 8 km/h 16.1 km/h 81% 0 mm
00:54 1.4 °C -1.5 °C 1016.5 hPa ENE 6.4 km/h 14.5 km/h 81% 0 mm
00:59 1.3 °C -1.6 °C 1016.5 hPa East 8 km/h 11.3 km/h 81% 0 mm
01:05 1.3 °C -1.6 °C 1016.5 hPa East 9.7 km/h 17.7 km/h 81% 0 mm
01:10 1.3 °C -1.4 °C 1016.1 hPa East 9.7 km/h 11.3 km/h 82% 0 mm
01:15 1.3 °C -1.4 °C 1016.5 hPa ENE 6.4 km/h 9.7 km/h 82% 0 mm
01:20 1.3 °C -1.4 °C 1016.5 hPa ENE 6.4 km/h 12.9 km/h 82% 0 mm
01:25 1.3 °C -1.3 °C 1016.1 hPa ENE 6.4 km/h 12.9 km/h 83% 0 mm
01:30 1.2 °C -1.3 °C 1016.1 hPa ENE 4.8 km/h 12.9 km/h 83% 0 mm
01:40 1.2 °C -1.3 °C 1016.1 hPa ENE 6.4 km/h 14.5 km/h 83% 0 mm
01:45 1.2 °C -1.4 °C 1016.1 hPa ENE 6.4 km/h 12.9 km/h 83% 0 mm
01:50 1.1 °C -1.3 °C 1016.1 hPa ENE 3.2 km/h 11.3 km/h 84% 0 mm
01:55 1.1 °C -1.3 °C 1016.1 hPa NE 4.8 km/h 14.5 km/h 84% 0 mm
02:00 1.1 °C -1.3 °C 1016.1 hPa ENE 6.4 km/h 14.5 km/h 84% 0 mm
02:05 1.1 °C -1.3 °C 1015.8 hPa ENE 4.8 km/h 14.5 km/h 84% 0 mm
02:10 1.1 °C -1.2 °C 1015.8 hPa ENE 6.4 km/h 14.5 km/h 85% 0 mm
02:15 1 °C -1.2 °C 1015.8 hPa NE 6.4 km/h 14.5 km/h 85% 0 mm
02:20 1 °C -1.2 °C 1015.8 hPa ENE 8 km/h 12.9 km/h 85% 0 mm
02:25 0.9 °C -1.3 °C 1015.5 hPa ENE 6.4 km/h 12.9 km/h 85% 0 mm
02:30 0.9 °C -1.2 °C 1015.5 hPa ENE 12.9 km/h 14.5 km/h 86% 0 mm
02:35 0.8 °C -1.2 °C 1015.5 hPa East 9.7 km/h 17.7 km/h 86% 0 mm
02:40 0.8 °C -1.2 °C 1015.5 hPa ENE 8 km/h 17.7 km/h 86% 0 mm
02:45 0.8 °C -1.2 °C 1015.1 hPa ENE 6.4 km/h 12.9 km/h 87% 0 mm
02:50 0.8 °C -1.2 °C 1015.1 hPa ENE 6.4 km/h 14.5 km/h 87% 0 mm
02:55 0.7 °C -1.2 °C 1014.8 hPa NE 3.2 km/h 14.5 km/h 87% 0 mm
03:00 0.7 °C -1.2 °C 1015.1 hPa NE 4.8 km/h 11.3 km/h 87% 0 mm
03:05 0.7 °C -1.2 °C 1015.1 hPa NE 4.8 km/h 12.9 km/h 87% 0 mm
03:10 0.7 °C -1.1 °C 1014.8 hPa NE 11.3 km/h 16.1 km/h 88% 0 mm
03:15 0.6 °C -1.2 °C 1014.8 hPa NE 8 km/h 16.1 km/h 88% 0 mm
03:20 0.6 °C -1.2 °C 1014.8 hPa NE 8 km/h 17.7 km/h 88% 0 mm
03:25 0.6 °C -1.2 °C 1014.8 hPa NE 9.7 km/h 17.7 km/h 88% 0 mm
03:30 0.5 °C -1.3 °C 1014.8 hPa NE 11.3 km/h 19.3 km/h 88% 0 mm
03:35 0.5 °C -1.1 °C 1014.8 hPa NE 8 km/h 19.3 km/h 89% 0 mm
03:40 0.4 °C -1.2 °C 1014.8 hPa ENE 12.9 km/h 16.1 km/h 89% 0 mm
03:45 0.4 °C -1.2 °C 1014.8 hPa NE 8 km/h 19.3 km/h 89% 0 mm
03:50 0.4 °C -1.2 °C 1014.4 hPa NE 9.7 km/h 19.3 km/h 89% 0.25 mm
03:55 0.3 °C -1.3 °C 1014.4 hPa NE 9.7 km/h 17.7 km/h 89% 0.25 mm
04:00 0.3 °C -1.3 °C 1014.1 hPa NE 3.2 km/h 20.9 km/h 89% 0.25 mm
04:05 0.2 °C -1.2 °C 1014.1 hPa NE 8 km/h 20.9 km/h 90% 0.25 mm
04:10 0.1 °C -1.3 °C 1014.1 hPa NE 9.7 km/h 16.1 km/h 90% 0.25 mm
04:15 0.1 °C -1.3 °C 1013.8 hPa East 11.3 km/h 17.7 km/h 90% 0.51 mm
04:20 0.1 °C -1.3 °C 1013.8 hPa NE 9.7 km/h 19.3 km/h 90% 0.51 mm
04:25 0.1 °C -1.4 °C 1013.8 hPa NE 8 km/h 19.3 km/h 90% 0.51 mm
04:30 0.1 °C -1.4 °C 1013.4 hPa NE 8 km/h 16.1 km/h 90% 0.51 mm
04:35 0.1 °C -1.4 °C 1013.4 hPa NE 9.7 km/h 17.7 km/h 90% 0.51 mm
04:40 0.1 °C -1.2 °C 1013.1 hPa NE 8 km/h 20.9 km/h 91% 0.51 mm
04:45 0.1 °C -1.2 °C 1013.1 hPa NE 9.7 km/h 20.9 km/h 91% 0.51 mm
04:50 0.1 °C -1.2 °C 1013.1 hPa NE 9.7 km/h 19.3 km/h 91% 0.25 mm
04:55 0 °C -1.3 °C 1013.1 hPa NE 9.7 km/h 20.9 km/h 91% 0.51 mm
05:00 0 °C -1.3 °C 1013.1 hPa ENE 8 km/h 14.5 km/h 91% 0.51 mm
05:04 0 °C -1.3 °C 1013.1 hPa NE 6.4 km/h 12.9 km/h 91% 0.51 mm
05:10 0.1 °C -1.2 °C 1013.1 hPa East 4.8 km/h 14.5 km/h 91% 0.51 mm
05:15 0.1 °C -1.2 °C 1012.8 hPa ENE 4.8 km/h 14.5 km/h 91% 0.51 mm
05:20 0.1 °C -1.2 °C 1012.8 hPa ENE 6.4 km/h 14.5 km/h 91% 0.51 mm
05:25 0.1 °C -1.2 °C 1012.8 hPa ENE 6.4 km/h 12.9 km/h 91% 0.51 mm
05:30 0.1 °C -1.2 °C 1012.8 hPa NE 6.4 km/h 12.9 km/h 91% 0.76 mm
05:35 0.1 °C -1.2 °C 1012.4 hPa NE 6.4 km/h 12.9 km/h 91% 0.76 mm
05:40 0.1 °C -1.1 °C 1012.4 hPa ENE 3.2 km/h 11.3 km/h 92% 1.02 mm
05:45 0.1 °C -1.1 °C 1012.4 hPa NE 9.7 km/h 16.1 km/h 92% 1.02 mm
05:50 0.1 °C -1.1 °C 1012.4 hPa ENE 8 km/h 14.5 km/h 92% 1.02 mm
05:59 0.1 °C -1.1 °C 1012.4 hPa NE 4.8 km/h 12.9 km/h 92% 1.02 mm
06:05 0.2 °C -1 °C 1012.4 hPa NE 3.2 km/h 9.7 km/h 92% 1.02 mm
06:10 0.1 °C -1.1 °C 1012.4 hPa ENE 3.2 km/h 11.3 km/h 92% 1.27 mm
06:15 0.2 °C -1 °C 1012.4 hPa ENE 4.8 km/h 9.7 km/h 92% 1.02 mm
06:20 0.2 °C -1 °C 1012.1 hPa NE 3.2 km/h 12.9 km/h 92% 1.27 mm
06:25 0.2 °C -1 °C 1012.1 hPa NE 4.8 km/h 12.9 km/h 92% 1.27 mm
06:35 0.2 °C -1 °C 1012.1 hPa NE 6.4 km/h 11.3 km/h 92% 1.27 mm
06:40 0.1 °C -1.1 °C 1011.7 hPa NNE 3.2 km/h 14.5 km/h 92% 1.27 mm
06:45 0.1 °C -1.1 °C 1011.7 hPa NE 6.4 km/h 14.5 km/h 92% 1.27 mm
06:50 0.1 °C -1.1 °C 1011.7 hPa ENE 12.9 km/h 12.9 km/h 92% 1.27 mm
07:00 0 °C -1.2 °C 1011.7 hPa NE 6.4 km/h 16.1 km/h 92% 1.27 mm
07:05 0 °C -1.2 °C 1011.7 hPa NE 6.4 km/h 14.5 km/h 92% 1.27 mm
07:09 0 °C -1.2 °C 1011.7 hPa NE 9.7 km/h 12.9 km/h 92% 1.27 mm
07:14 0.1 °C -1.1 °C 1011.7 hPa NE 14.5 km/h 16.1 km/h 92% 1.27 mm
07:20 0 °C -1.2 °C 1011.7 hPa NE 3.2 km/h 14.5 km/h 92% 1.02 mm
07:25 0.1 °C -1.1 °C 1011.4 hPa NE 3.2 km/h 11.3 km/h 92% 1.27 mm
07:30 0 °C -1.2 °C 1011.7 hPa NE 11.3 km/h 12.9 km/h 92% 1.02 mm
07:34 0 °C -1.2 °C 1011.7 hPa NE 8 km/h 12.9 km/h 92% 1.02 mm
07:40 0 °C -1.2 °C 1011.7 hPa NE 6.4 km/h 16.1 km/h 92% 1.02 mm
07:45 0 °C -1.2 °C 1011.4 hPa NNE 3.2 km/h 9.7 km/h 92% 1.02 mm
07:50 -0.1 °C -1.2 °C 1011.4 hPa NE 6.4 km/h 11.3 km/h 92% 1.27 mm
07:55 -0.1 °C -1.2 °C 1011.4 hPa ENE 4.8 km/h 11.3 km/h 92% 1.27 mm
08:00 -0.1 °C -1.2 °C 1011.4 hPa NE 4.8 km/h 14.5 km/h 92% 1.02 mm
08:04 -0.1 °C -1.3 °C 1011.4 hPa NE 6.4 km/h 14.5 km/h 92% 1.27 mm
08:10 -0.1 °C -1.2 °C 1011.1 hPa NE 6.4 km/h 12.9 km/h 92% 1.02 mm
08:14 -0.1 °C -1.3 °C 1011.1 hPa East 4.8 km/h 12.9 km/h 92% 1.02 mm
08:20 -0.1 °C -1.2 °C 1011.1 hPa NE 8 km/h 11.3 km/h 92% 1.27 mm
08:25 0 °C -1 °C 1011.1 hPa NE 4.8 km/h 11.3 km/h 93% 1.02 mm
08:30 0 °C -1 °C 1010.7 hPa ENE 3.2 km/h 9.7 km/h 93% 1.27 mm
08:34 0 °C -1 °C 1010.4 hPa ENE 4.8 km/h 9.7 km/h 93% 1.52 mm
08:40 0.1 °C -0.9 °C 1010.4 hPa ENE 4.8 km/h 9.7 km/h 93% 1.27 mm
08:44 0.1 °C -0.9 °C 1010 hPa East 3.2 km/h 8 km/h 93% 1.52 mm
08:50 0.1 °C -0.9 °C 1009.7 hPa ENE 3.2 km/h 9.7 km/h 93% 1.27 mm
08:55 0.2 °C -0.8 °C 1009.7 hPa ENE 3.2 km/h 9.7 km/h 93% 1.52 mm
09:00 0.2 °C -0.8 °C 1009 hPa SE 9.7 km/h 11.3 km/h 93% 1.52 mm
09:04 0.3 °C -0.7 °C 1009 hPa ESE 4.8 km/h 12.9 km/h 93% 1.27 mm
09:09 0.3 °C -0.7 °C 1008.7 hPa ESE 4.8 km/h 16.1 km/h 93% 1.52 mm
09:15 0.3 °C -0.7 °C 1008.7 hPa ESE 4.8 km/h 16.1 km/h 93% 1.27 mm
09:20 0.4 °C -0.6 °C 1008.4 hPa East 4.8 km/h 14.5 km/h 93% 1.52 mm
09:24 0.4 °C -0.6 °C 1008.4 hPa East 4.8 km/h 9.7 km/h 93% 1.52 mm
09:30 0.5 °C -0.5 °C 1008 hPa East 3.2 km/h 11.3 km/h 93% 1.52 mm
09:34 0.6 °C -0.4 °C 1008.4 hPa East 3.2 km/h 11.3 km/h 93% 1.27 mm
09:40 0.6 °C -0.4 °C 1008.4 hPa East 3.2 km/h 8 km/h 93% 1.27 mm
09:45 0.6 °C -0.4 °C 1008 hPa ENE 1.6 km/h 4.8 km/h 93% 1.27 mm
09:50 0.6 °C -0.4 °C 1008 hPa NNE 3.2 km/h 4.8 km/h 93% 1.27 mm
09:55 0.7 °C -0.3 °C 1008 hPa NNE 1.6 km/h 4.8 km/h 93% 1.02 mm
10:00 0.7 °C -0.3 °C 1008 hPa NNE 3.2 km/h 4.8 km/h 93% 1.27 mm
10:05 0.7 °C -0.3 °C 1008 hPa NNE 1.6 km/h 4.8 km/h 93% 1.02 mm
10:10 0.7 °C -0.3 °C 1007.7 hPa North 3.2 km/h 4.8 km/h 93% 1.27 mm
10:15 0.7 °C -0.3 °C 1007.3 hPa North 3.2 km/h 6.4 km/h 93% 1.27 mm
10:20 0.7 °C -0.3 °C 1007.3 hPa North 3.2 km/h 6.4 km/h 93% 1.02 mm
10:25 0.7 °C -0.1 °C 1006.7 hPa NNE 3.2 km/h 12.9 km/h 94% 1.02 mm
10:30 0.8 °C -0.1 °C 1006.7 hPa NE 3.2 km/h 12.9 km/h 94% 0.76 mm
10:35 0.8 °C 0 °C 1006.7 hPa NE 3.2 km/h 6.4 km/h 94% 1.02 mm
10:39 1.1 °C 0.2 °C 1006.7 hPa North 4.8 km/h 6.4 km/h 94% 1.02 mm
10:44 1.2 °C 0.4 °C 1006.3 hPa NNE 4.8 km/h 6.4 km/h 94% 0.76 mm
10:50 1.3 °C 0.5 °C 1006.3 hPa NNE 4.8 km/h 6.4 km/h 94% 0.76 mm
10:54 1.4 °C 0.6 °C 1006.3 hPa NNE 3.2 km/h 6.4 km/h 94% 0.76 mm
11:00 1.4 °C 0.6 °C 1006.3 hPa North 4.8 km/h 4.8 km/h 94% 0.51 mm
11:05 1.4 °C 0.6 °C 1006 hPa NNE 3.2 km/h 6.4 km/h 94% 0.51 mm
11:10 1.4 °C 0.6 °C 1006 hPa NNE 4.8 km/h 4.8 km/h 94% 0.25 mm
11:15 1.4 °C 0.6 °C 1006.3 hPa North 4.8 km/h 9.7 km/h 94% 0.25 mm
11:19 1.3 °C 0.3 °C 1006.7 hPa North 6.4 km/h 12.9 km/h 93% 0.25 mm
11:25 1.2 °C 0.3 °C 1006.7 hPa North 4.8 km/h 12.9 km/h 94% 0.25 mm
11:30 1.1 °C 0.3 °C 1006.7 hPa North 3.2 km/h 11.3 km/h 94% 0.25 mm
11:35 1 °C 0 °C 1006.7 hPa NNW 4.8 km/h 11.3 km/h 93% 0.25 mm
11:40 0.9 °C 0.1 °C 1006.7 hPa North 4.8 km/h 11.3 km/h 94% 0.25 mm
11:45 0.9 °C 0.1 °C 1006.7 hPa NNW 6.4 km/h 8 km/h 94% 0.25 mm
11:49 1.1 °C 0.2 °C 1007 hPa NNW 3.2 km/h 8 km/h 94% 0.51 mm
11:55 1 °C 0.2 °C 1007 hPa NW 3.2 km/h 9.7 km/h 94% 0.51 mm
12:00 0.9 °C 0.1 °C 1007 hPa NW 4.8 km/h 9.7 km/h 94% 0.76 mm
12:04 0.8 °C 0 °C 1006.7 hPa NNW 4.8 km/h 9.7 km/h 94% 0.76 mm
12:09 0.9 °C 0.1 °C 1006.7 hPa Calm   6.4 km/h 94% 1.02 mm
12:15 0.9 °C 0.1 °C 1006.3 hPa North 3.2 km/h 8 km/h 94% 1.02 mm
12:20 1.1 °C 0.3 °C 1006.3 hPa North 3.2 km/h 8 km/h 94% 1.27 mm
12:25 1.1 °C 0.2 °C 1006.3 hPa NW 4.8 km/h 9.7 km/h 94% 1.27 mm
12:29 1 °C 0.2 °C 1006.3 hPa NNW 4.8 km/h 9.7 km/h 94% 1.27 mm
12:35 1 °C 0.2 °C 1006.3 hPa NNW 4.8 km/h 11.3 km/h 94% 1.27 mm
12:40 1 °C 0.2 °C 1006.3 hPa NW 4.8 km/h 11.3 km/h 94% 1.27 mm
12:45 1 °C 0.2 °C 1006.3 hPa WNW 8 km/h 8 km/h 94% 1.27 mm
12:49 0.9 °C 0.1 °C 1006 hPa NNW 4.8 km/h 8 km/h 94% 1.27 mm
12:54 1.1 °C 0.2 °C 1006 hPa NW 1.6 km/h 4.8 km/h 94% 1.27 mm
12:59 1.1 °C 0.2 °C 1006.3 hPa NW 3.2 km/h 8 km/h 94% 1.02 mm
13:04 1 °C 0.2 °C 1006 hPa Calm   6.4 km/h 94% 1.02 mm
13:09 0.9 °C 0.1 °C 1006 hPa NW 1.6 km/h 8 km/h 94% 1.02 mm
13:15 0.9 °C 0.1 °C 1006 hPa NW 3.2 km/h 8 km/h 94% 1.02 mm
13:20 0.8 °C 0 °C 1006.3 hPa NW 3.2 km/h 11.3 km/h 94% 0.76 mm
13:25 0.7 °C -0.1 °C 1006.3 hPa NW 6.4 km/h 11.3 km/h 94% 0.76 mm
13:29 0.6 °C -0.4 °C 1006.3 hPa NW 6.4 km/h 14.5 km/h 93% 0.76 mm
13:35 0.4 °C -0.4 °C 1006.3 hPa NW 8 km/h 14.5 km/h 94% 0.51 mm
13:40 0.3 °C -0.5 °C 1006 hPa NW 8 km/h 14.5 km/h 94% 0.51 mm
13:49 0.3 °C -0.7 °C 1006 hPa West 1.6 km/h 12.9 km/h 93% 0.51 mm
13:54 0.3 °C -0.7 °C 1005.6 hPa NNW 3.2 km/h 9.7 km/h 93% 0.51 mm
13:59 0.4 °C -0.4 °C 1005.6 hPa NW 6.4 km/h 11.3 km/h 94% 0.51 mm
14:05 0.4 °C -0.4 °C 1005.6 hPa NW 4.8 km/h 12.9 km/h 94% 0.76 mm
14:10 0.4 °C -0.6 °C 1005.6 hPa NW 3.2 km/h 12.9 km/h 93% 0.51 mm
14:14 0.3 °C -0.7 °C 1005.6 hPa NNW 6.4 km/h 12.9 km/h 93% 0.51 mm
14:20 0.2 °C -0.8 °C 1006 hPa NW 8 km/h 9.7 km/h 93% 0.51 mm
14:25 0.1 °C -0.9 °C 1006 hPa NW 3.2 km/h 14.5 km/h 93% 0.51 mm
14:30 -0.1 °C -1.1 °C 1006.3 hPa NW 6.4 km/h 14.5 km/h 93% 0.51 mm
14:34 -0.1 °C -1.1 °C 1006.3 hPa Calm   4.8 km/h 93% 0.51 mm
14:39 -0.1 °C -1.1 °C 1006.3 hPa WNW 1.6 km/h 8 km/h 93% 0.51 mm
14:44 -0.2 °C -1.2 °C 1006 hPa NW 3.2 km/h 8 km/h 93% 0.25 mm
14:50 -0.2 °C -1.2 °C 1006 hPa NW 3.2 km/h 8 km/h 93% 0.25 mm
14:54 -0.2 °C -1.2 °C 1006.3 hPa NW 3.2 km/h 8 km/h 93% 0.25 mm
15:00 -0.3 °C -1.3 °C 1006 hPa North 1.6 km/h 6.4 km/h 93% 0.25 mm
15:04 -0.4 °C -1.4 °C 1006 hPa WNW 1.6 km/h 6.4 km/h 93% 0.25 mm
15:09 -0.5 °C -1.5 °C 1006 hPa NW 3.2 km/h 8 km/h 93% 0.25 mm
15:14 -0.6 °C -1.7 °C 1006 hPa WNW 3.2 km/h 8 km/h 92% 0.25 mm
15:19 -0.6 °C -1.7 °C 1006 hPa NW 3.2 km/h 4.8 km/h 92% 0.25 mm
15:24 -0.6 °C -1.7 °C 1006 hPa WNW 1.6 km/h 6.4 km/h 92% 0.25 mm
15:29 -0.6 °C -1.7 °C 1006.3 hPa NW 4.8 km/h 6.4 km/h 92% 0.25 mm
15:34 -0.6 °C -1.6 °C 1006.3 hPa WNW 3.2 km/h 6.4 km/h 93% 0.25 mm
15:39 -0.6 °C -1.7 °C 1006.7 hPa WNW 3.2 km/h 9.7 km/h 92% 0.25 mm
15:44 -0.6 °C -1.7 °C 1006.7 hPa West 4.8 km/h 9.7 km/h 92% 0.25 mm
15:50 -0.7 °C -1.8 °C 1006.7 hPa WNW 4.8 km/h 8 km/h 92% 0.25 mm
15:54 -0.7 °C -1.8 °C 1006.7 hPa West 3.2 km/h 8 km/h 92% 0.25 mm
15:59 -0.6 °C -1.7 °C 1006.3 hPa WSW 4.8 km/h 9.7 km/h 92% 0.25 mm
16:04 -0.6 °C -1.7 °C 1006.3 hPa West 3.2 km/h 11.3 km/h 92% 0 mm
16:09 -0.6 °C -1.7 °C 1006.3 hPa SW 9.7 km/h 11.3 km/h 92% 0 mm
16:14 -0.6 °C -1.7 °C 1006.3 hPa WSW 4.8 km/h 12.9 km/h 92% 0 mm
16:19 -0.5 °C -1.7 °C 1006.7 hPa WSW 6.4 km/h 16.1 km/h 92% 0 mm
16:24 -0.5 °C -1.7 °C 1006.7 hPa WSW 4.8 km/h 12.9 km/h 92% 0 mm
16:29 -0.5 °C -1.7 °C 1006.7 hPa WSW 6.4 km/h 14.5 km/h 92% 0 mm
16:35 -0.5 °C -1.7 °C 1006.7 hPa WSW 4.8 km/h 14.5 km/h 92% 0 mm
16:45 -0.5 °C -1.7 °C 1006.7 hPa WSW 8 km/h 19.3 km/h 92% 0 mm
16:50 -0.5 °C -1.7 °C 1006.7 hPa WSW 8 km/h 16.1 km/h 92% 0 mm
16:54 -0.4 °C -1.6 °C 1006.7 hPa WSW 8 km/h 16.1 km/h 92% 0 mm
17:00 -0.4 °C -1.6 °C 1006.3 hPa WSW 6.4 km/h 17.7 km/h 92% 0 mm
17:05 -0.4 °C -1.6 °C 1006.3 hPa SW 9.7 km/h 16.1 km/h 92% 0 mm
17:09 -0.3 °C -1.5 °C 1006.3 hPa SW 9.7 km/h 16.1 km/h 92% 0 mm
17:14 -0.3 °C -1.5 °C 1006.3 hPa SW 4.8 km/h 14.5 km/h 92% 0 mm
17:19 -0.3 °C -1.5 °C 1006.3 hPa WSW 4.8 km/h 11.3 km/h 92% 0 mm
17:24 -0.3 °C -1.5 °C 1006.3 hPa WSW 6.4 km/h 14.5 km/h 92% 0 mm
17:29 -0.3 °C -1.3 °C 1006.3 hPa West 4.8 km/h 9.7 km/h 93% 0 mm
17:34 -0.3 °C -1.3 °C 1006.3 hPa WSW 6.4 km/h 12.9 km/h 93% 0 mm
17:39 -0.3 °C -1.4 °C 1006.7 hPa SW 6.4 km/h 14.5 km/h 92% 0 mm
17:44 -0.2 °C -1.2 °C 1006.3 hPa WSW 8 km/h 14.5 km/h 93% 0 mm
17:49 -0.2 °C -1.2 °C 1006.3 hPa WSW 6.4 km/h 12.9 km/h 93% 0 mm
17:54 0.1 °C -0.9 °C 1006.3 hPa SW 8 km/h 17.7 km/h 93% 0 mm
17:59 0.2 °C -0.8 °C 1006.3 hPa SSE 12.9 km/h 27.4 km/h 93% 0 mm
18:04 0.3 °C -0.7 °C 1006.7 hPa SW 8 km/h 24.1 km/h 93% 0 mm
18:09 0.4 °C -0.6 °C 1006.7 hPa SW 11.3 km/h 25.7 km/h 93% 0 mm
18:14 0.4 °C -0.6 °C 1006.7 hPa West 16.1 km/h 22.5 km/h 93% 0 mm
18:19 0.4 °C -0.6 °C 1006.7 hPa WSW 12.9 km/h 27.4 km/h 93% 0 mm
18:24 0.4 °C -0.6 °C 1006.7 hPa WSW 12.9 km/h 27.4 km/h 93% 0 mm
18:29 0.4 °C -0.6 °C 1006.7 hPa WSW 11.3 km/h 25.7 km/h 93% 0 mm
18:34 0.4 °C -0.6 °C 1006.7 hPa WSW 11.3 km/h 24.1 km/h 93% 0 mm
18:39 0.4 °C -0.6 °C 1006.7 hPa WSW 11.3 km/h 27.4 km/h 93% 0 mm
18:44 0.6 °C -0.3 °C 1006.7 hPa WNW 8 km/h 20.9 km/h 94% 0 mm
18:54 0.6 °C -0.4 °C 1006.3 hPa WSW 11.3 km/h 22.5 km/h 93% 0 mm
18:59 0.6 °C -0.4 °C 1006.3 hPa WSW 11.3 km/h 22.5 km/h 93% 0 mm
19:04 0.6 °C -0.2 °C 1006.3 hPa WSW 9.7 km/h 20.9 km/h 94% 0 mm
19:09 0.7 °C -0.1 °C 1006.3 hPa WSW 8 km/h 14.5 km/h 94% 0 mm
19:14 0.8 °C -0.1 °C 1006 hPa WSW 9.7 km/h 17.7 km/h 94% 0 mm
19:19 0.8 °C 0 °C 1006 hPa WSW 9.7 km/h 17.7 km/h 94% 0 mm
19:24 0.8 °C 0 °C 1006 hPa WSW 9.7 km/h 17.7 km/h 94% 0 mm
19:29 0.9 °C 0.1 °C 1006 hPa West 8 km/h 14.5 km/h 94% 0 mm
19:34 0.9 °C 0.1 °C 1006 hPa WSW 3.2 km/h 12.9 km/h 94% 0 mm
19:39 0.9 °C 0.1 °C 1005.6 hPa WSW 4.8 km/h 16.1 km/h 94% 0 mm
19:44 1 °C 0.2 °C 1006 hPa WSW 8 km/h 12.9 km/h 94% 0 mm
19:49 1 °C 0.2 °C 1006 hPa West 9.7 km/h 16.1 km/h 94% 0 mm
19:54 1.1 °C 0.2 °C 1006 hPa WSW 9.7 km/h 16.1 km/h 94% 0 mm
19:59 1.1 °C 0.3 °C 1006 hPa WSW 9.7 km/h 19.3 km/h 94% 0 mm
20:04 1.2 °C 0.3 °C 1006 hPa WSW 9.7 km/h 19.3 km/h 94% 0 mm
20:09 1.2 °C 0.4 °C 1006 hPa WSW 9.7 km/h 22.5 km/h 94% 0 mm
20:15 1.3 °C 0.4 °C 1006 hPa WSW 11.3 km/h 25.7 km/h 94% 0 mm
20:19 1.3 °C 0.5 °C 1006.3 hPa WSW 12.9 km/h 30.6 km/h 94% 0.25 mm
20:24 1.3 °C 0.3 °C 1006.3 hPa WSW 9.7 km/h 29 km/h 93% 0.25 mm
20:29 1.4 °C 0.4 °C 1006.3 hPa SW 4.8 km/h 30.6 km/h 93% 0.51 mm
20:34 1.4 °C 0.4 °C 1006.3 hPa SW 8 km/h 24.1 km/h 93% 0.51 mm
20:39 1.4 °C 0.3 °C 1006.7 hPa West 19.3 km/h 41.8 km/h 92% 0.51 mm
20:44 1.4 °C 0.1 °C 1006.7 hPa West 16.1 km/h 29 km/h 91% 0.76 mm
20:49 1.3 °C 0 °C 1006.7 hPa NW 12.9 km/h 32.2 km/h 91% 0.76 mm
20:54 1.3 °C -0.1 °C 1007 hPa NW 17.7 km/h 32.2 km/h 90% 0.76 mm
20:59 1.3 °C -0.3 °C 1007.3 hPa WNW 19.3 km/h 37 km/h 89% 0.76 mm
21:04 1.3 °C -0.5 °C 1007.3 hPa WNW 19.3 km/h 37 km/h 88% 0.76 mm
21:09 1.3 °C -0.5 °C 1007.3 hPa WNW 16.1 km/h 32.2 km/h 88% 0.76 mm
21:14 1.3 °C -0.7 °C 1007.7 hPa WNW 14.5 km/h 30.6 km/h 87% 1.02 mm
21:19 1.3 °C -0.7 °C 1007.7 hPa WNW 14.5 km/h 29 km/h 87% 0.76 mm
21:24 1.2 °C -1.1 °C 1007.7 hPa WNW 16.1 km/h 33.8 km/h 85% 0.76 mm
21:29 1.2 °C -1.1 °C 1008 hPa WNW 14.5 km/h 33.8 km/h 85% 0.51 mm
21:34 1.1 °C -1.1 °C 1008 hPa WNW 14.5 km/h 33.8 km/h 85% 0.51 mm
21:39 1 °C -1.6 °C 1008.4 hPa WNW 17.7 km/h 38.6 km/h 83% 0.51 mm
21:44 0.9 °C -1.8 °C 1008.7 hPa WNW 17.7 km/h 38.6 km/h 82% 0.25 mm
21:49 0.8 °C -1.9 °C 1008.7 hPa WNW 19.3 km/h 33.8 km/h 82% 0.25 mm
21:54 0.8 °C -1.9 °C 1008.7 hPa WNW 12.9 km/h 43.5 km/h 82% 0.25 mm
21:59 0.7 °C -2.4 °C 1009 hPa WNW 19.3 km/h 46.7 km/h 80% 0.25 mm
22:04 0.6 °C -2.4 °C 1009 hPa NW 16.1 km/h 41.8 km/h 80% 0.25 mm
22:09 0.5 °C -2.6 °C 1009 hPa WNW 19.3 km/h 41.8 km/h 80% 0.25 mm
22:14 0.4 °C -2.8 °C 1009.4 hPa WNW 20.9 km/h 37 km/h 79% 0 mm
22:19 0.3 °C -2.9 °C 1009.4 hPa WNW 20.9 km/h 45.1 km/h 79% 0 mm
22:24 0.3 °C -3.1 °C 1009.4 hPa WNW 22.5 km/h 45.1 km/h 78% 0 mm
22:29 0.2 °C -3.1 °C 1009.7 hPa West 12.9 km/h 32.2 km/h 79% 0 mm
22:34 0.1 °C -3.2 °C 1009.7 hPa North 14.5 km/h 38.6 km/h 79% 0 mm
22:39 -0.1 °C -3.3 °C 1009.7 hPa WNW 17.7 km/h 38.6 km/h 79% 0 mm
22:44 -0.2 °C -3.4 °C 1010 hPa WNW 19.3 km/h 38.6 km/h 79% 0 mm
22:49 -0.2 °C -3.4 °C 1010 hPa WNW 20.9 km/h 40.2 km/h 79% 0 mm
22:54 -0.3 °C -3.7 °C 1010.4 hPa WNW 20.9 km/h 40.2 km/h 78% 0 mm
22:59 -0.4 °C -3.8 °C 1010.4 hPa WNW 16.1 km/h 45.1 km/h 78% 0 mm
23:04 -0.4 °C -3.8 °C 1010.4 hPa West 14.5 km/h 35.4 km/h 78% 0 mm
23:09 -0.5 °C -3.9 °C 1010.4 hPa NW 20.9 km/h 38.6 km/h 78% 0 mm
23:14 -0.6 °C -3.9 °C 1010.7 hPa WNW 19.3 km/h 38.6 km/h 78% 0 mm
23:19 -0.7 °C -4.2 °C 1010.7 hPa WNW 17.7 km/h 37 km/h 77% 0 mm
23:24 -0.7 °C -4.2 °C 1010.7 hPa WNW 29 km/h 37 km/h 77% 0 mm
23:29 -0.8 °C -4.5 °C 1011.1 hPa West 11.3 km/h 29 km/h 76% 0 mm
23:34 -0.8 °C -4.9 °C 1011.1 hPa WNW 20.9 km/h 40.2 km/h 74% 0 mm
23:39 -0.8 °C -4.7 °C 1011.1 hPa NW 11.3 km/h 35.4 km/h 75% 0 mm
23:44 -0.9 °C -4.8 °C 1011.1 hPa West 16.1 km/h 30.6 km/h 75% 0 mm
23:49 -0.9 °C -4.8 °C 1011.4 hPa West 16.1 km/h 35.4 km/h 75% 0 mm
23:54 -0.9 °C -5 °C 1011.4 hPa West 16.1 km/h 35.4 km/h 74% 0 mm
23:59 -1.1 °C -4.9 °C 1011.7 hPa West 16.1 km/h 33.8 km/h 75% 0 mm
Buffalo, New York, USA
Compliments of Weather Underground - 2.5 mb